QPF
0.00 0.00 0.00 0.00 0.00 0.00 0.00 0.00 0.00 0.00 0.00 0.00 0.00 0.00 0.00 0.00 0.00 0.00 0.00 0.00 0.00 0.00 0.00 0.00 0.01 0.01 0.01
0.00 0.00 0.00 0.00 0.00 0.00 0.00 0.00 0.00 0.00 0.00 0.00 0.00 0.00 0.00 0.00 0.00 0.00 0.00 0.00 0.00 0.00 0.01 0.01 0.01 0.02 0.02
0.00 0.00 0.00 0.00 0.00 0.00 0.00 0.00 0.00 0.00 0.00 0.00 0.00 0.00 0.00 0.00 0.00 0.00 0.00 0.00 0.00 0.00 0.00 0.00 0.00 0.01 0.01
0.00 0.00 0.00 0.00 0.00 0.00 0.00 0.00 0.00 0.00 0.00 0.00 0.00 0.00 0.00 0.00 0.00 0.00 0.00 0.00 0.00 0.00 0.00 0.01 0.02 0.02 0.01
0.00 0.00 0.00 0.00 0.00 0.00 0.00 0.00 0.00 0.00 0.00 0.00 0.00 0.00 0.00 0.00 0.00 0.00 0.00 0.00 0.00 0.00 0.01 0.01 0.00 0.00 0.01
0.00 0.00 0.00 0.00 0.00 0.00 0.00 0.00 0.00 0.00 0.00 0.00 0.00 0.00 0.00 0.00 0.00 0.00 0.00 0.00 0.00 0.00 0.00 0.00 0.00 0.00 0.01
0.00 0.00 0.00 0.00 0.00 0.00 0.00 0.00 0.00 0.00 0.00 0.00 0.00 0.00 0.00 0.00 0.00 0.00 0.00 0.00 0.00 0.00 0.00 0.00 0.00 0.00 0.00
0.00 0.00 0.00 0.00 0.00 0.00 0.00 0.00 0.00 0.00 0.00 0.00 0.00 0.00 0.00 0.00 0.00 0.00 0.00 0.00 0.00 0.00 0.00 0.00 0.00 0.00 0.01
0.00 0.00 0.00 0.00 0.00 0.00 0.00 0.00 0.00 0.00 0.00 0.00 0.00 0.00 0.00 0.00 0.00 0.00 0.00 0.00 0.00 0.00 0.00 0.00 0.00 0.00 0.00
0.00 0.00 0.00 0.00 0.00 0.00 0.00 0.00 0.00 0.00 0.00 0.00 0.00 0.00 0.01 0.00 0.00 0.00 0.00 0.00 0.00 0.00 0.00 0.00 0.00 0.00 0.00
0.00 0.00 0.00 0.00 0.00 0.00 0.00 0.00 0.00 0.00 0.00 0.01 0.00 0.00 0.02 0.01 0.00 0.00 0.00 0.00 0.00 0.00 0.00 0.00 0.00 0.00 0.00
0.00 0.00 0.00 0.00 0.00 0.00 0.00 0.00 0.00 0.00 0.00 0.00 0.00 0.00 0.01 0.02 0.00 0.00 0.00 0.00 0.00 0.00 0.00 0.00 0.00 0.00 0.00
0.00 0.00 0.00 0.00 0.00 0.00 0.00 0.00 0.00 0.00 0.00 0.00 0.00 0.00 0.00 0.02 0.01 0.00 0.00 0.00 0.00 0.00 0.00 0.00 0.00 0.00 0.00
0.00 0.00 0.00 0.00 0.00 0.00 0.00 0.00 0.00 0.00 0.00 0.00 0.00 0.00 0.00 0.00 0.00 0.00 0.00 0.00 0.00 0.00 0.00 0.00 0.00 0.00 0.00
0.00 0.00 0.00 0.00 0.00 0.00 0.00 0.00 0.00 0.00 0.00 0.00 0.00 0.00 0.00 0.00 0.01 0.00 0.00 0.00 0.00 0.00 0.00 0.00 0.00 0.00 0.00
0.00 0.00 0.00 0.00 0.00 0.00 0.00 0.00 0.00 0.00 0.00 0.00 0.00 0.01 0.00 0.00 0.00 0.00 0.01 0.02 0.00 0.00 0.00 0.01 0.00 0.00 0.00
0.00 0.00 0.00 0.00 0.00 0.00 0.00 0.00 0.00 0.00 0.00 0.00 0.00 0.02 0.03 0.01 0.00 0.00 0.02 0.02 0.00 0.00 0.00 0.00 0.01 0.00 0.00
MSLP
1031.95 1032.08 1031.80 1031.70 1031.80 1031.79 1031.43 1031.11 1030.66 1030.18 1029.55 1029.07 1028.54 1028.15 1027.69 1027.08 1026.56 1025.90 1025.33 1024.90 1024.31 1023.69 1022.92 1022.61 1021.83 1021.18 1020.52
1032.27 1032.51 1032.15 1031.82 1031.97 1032.00 1031.60 1031.10 1030.87 1030.16 1029.49 1029.09 1028.82 1028.37 1027.69 1027.10 1026.59 1025.93 1025.21 1024.76 1024.12 1023.30 1022.63 1022.21 1021.56 1020.79 1020.03
1032.59 1032.51 1032.26 1032.08 1032.03 1031.85 1031.63 1031.28 1030.67 1030.11 1029.60 1029.29 1028.83 1028.31 1027.57 1027.01 1026.32 1025.68 1025.15 1024.36 1023.62 1023.02 1022.46 1021.72 1021.25 1020.52 1019.72
1032.41 1032.49 1032.34 1032.03 1032.14 1031.82 1031.60 1030.97 1030.49 1029.94 1029.53 1029.23 1028.73 1028.04 1027.59 1027.09 1026.29 1025.68 1024.92 1023.93 1023.16 1022.52 1021.90 1021.60 1021.24 1020.41 1019.61
1032.56 1032.60 1032.38 1032.21 1032.18 1031.84 1031.51 1031.01 1030.36 1029.78 1029.69 1028.89 1028.36 1027.95 1027.70 1027.06 1026.27 1025.49 1024.65 1023.73 1022.85 1022.08 1021.65 1021.18 1020.68 1019.95 1019.45
1032.67 1032.87 1032.59 1032.53 1032.33 1031.91 1031.68 1031.35 1030.29 1029.72 1029.54 1029.06 1028.47 1028.07 1027.62 1026.97 1025.83 1024.97 1024.13 1023.37 1022.66 1021.86 1021.31 1020.72 1020.31 1019.66 1019.01
1032.90 1033.00 1032.85 1032.58 1032.32 1031.91 1031.96 1031.80 1031.18 1030.02 1029.85 1029.03 1028.26 1027.83 1027.33 1026.57 1025.29 1024.52 1023.78 1023.08 1022.36 1021.67 1020.86 1020.29 1019.75 1019.03 1018.47
1032.99 1032.95 1032.56 1032.50 1032.15 1032.11 1031.85 1031.52 1030.94 1030.01 1029.61 1028.92 1028.06 1027.54 1026.79 1026.08 1024.97 1024.10 1023.29 1022.70 1021.98 1021.16 1020.37 1019.75 1019.26 1018.61 1018.01
1032.78 1032.51 1032.44 1032.28 1031.89 1031.95 1031.78 1031.50 1030.83 1030.05 1029.14 1029.01 1028.06 1027.13 1026.29 1025.27 1024.49 1023.87 1023.15 1022.33 1021.86 1021.01 1020.11 1019.29 1018.56 1018.04 1017.81
1033.31 1033.17 1033.00 1032.58 1031.72 1031.91 1031.86 1031.76 1031.36 1030.11 1029.11 1028.98 1028.12 1027.52 1025.83 1024.78 1024.39 1023.38 1022.58 1021.82 1021.09 1020.68 1020.00 1019.10 1018.36 1017.77 1017.36
1033.58 1033.49 1032.82 1032.45 1032.02 1031.82 1031.62 1031.39 1031.20 1030.69 1029.10 1028.95 1027.97 1027.39 1026.97 1025.27 1023.57 1022.74 1022.36 1021.58 1020.92 1020.11 1019.40 1018.79 1018.10 1017.35 1016.79
1033.69 1033.13 1032.90 1032.51 1032.06 1031.66 1031.04 1030.65 1030.52 1030.03 1028.93 1028.67 1027.82 1027.28 1026.50 1025.20 1023.97 1022.16 1021.69 1021.02 1020.23 1019.54 1018.79 1018.08 1017.55 1016.95 1016.35
1033.44 1033.33 1033.13 1032.87 1032.16 1031.38 1030.62 1030.23 1029.54 1028.85 1028.13 1027.59 1027.26 1026.53 1026.06 1024.90 1023.62 1022.07 1021.31 1020.31 1019.48 1018.83 1018.19 1017.56 1016.96 1016.42 1015.81
1033.52 1033.42 1033.02 1032.64 1031.98 1031.37 1030.76 1030.01 1029.45 1028.06 1027.40 1026.91 1026.28 1025.72 1025.05 1024.08 1023.19 1021.74 1021.04 1020.45 1018.99 1018.27 1017.69 1016.92 1016.24 1015.79 1015.27
1033.78 1033.45 1033.04 1032.51 1031.77 1031.08 1030.68 1030.19 1029.77 1028.43 1026.86 1025.75 1025.33 1024.94 1024.28 1023.56 1022.22 1020.93 1020.26 1019.38 1018.46 1017.61 1017.17 1016.33 1015.46 1015.07 1014.38
1033.75 1033.45 1033.10 1032.54 1031.80 1030.93 1030.53 1030.07 1029.18 1028.01 1026.75 1025.45 1024.56 1023.55 1022.72 1021.92 1021.23 1019.96 1019.39 1018.58 1017.70 1017.06 1016.61 1015.92 1014.73 1013.80 1013.34
1033.49 1033.32 1033.02 1032.40 1031.72 1030.77 1029.92 1029.20 1028.24 1027.29 1026.09 1025.15 1024.49 1023.81 1022.25 1020.87 1019.67 1019.29 1018.71 1017.84 1017.13 1016.47 1015.85 1015.27 1014.22 1013.03 1012.64
Thickness
5482 5478 5478 5474 5468 5464 5461 5457 5455 5452 5451 5448 5446 5443 5440 5439 5436 5435 5432 5427 5424 5419 5416 5409 5405 5400 5396
5466 5459 5460 5461 5455 5449 5443 5440 5439 5438 5437 5433 5429 5425 5423 5420 5416 5413 5412 5408 5404 5400 5395 5388 5380 5375 5369
5451 5449 5448 5445 5440 5436 5430 5428 5426 5424 5422 5416 5412 5408 5406 5401 5397 5394 5390 5387 5383 5377 5368 5362 5354 5348 5343
5442 5436 5433 5432 5427 5424 5420 5417 5413 5410 5406 5401 5397 5393 5388 5380 5377 5372 5367 5364 5359 5352 5344 5334 5324 5320 5318
5427 5422 5421 5418 5413 5409 5407 5405 5401 5399 5396 5389 5387 5378 5368 5358 5352 5346 5341 5337 5332 5324 5316 5309 5303 5301 5299
5412 5407 5404 5400 5397 5396 5392 5388 5390 5382 5381 5376 5368 5360 5349 5337 5328 5321 5314 5309 5302 5297 5292 5290 5287 5285 5282
5398 5392 5389 5386 5385 5383 5375 5369 5364 5362 5358 5359 5350 5342 5330 5316 5302 5293 5285 5279 5275 5273 5273 5272 5271 5270 5269
5385 5381 5379 5373 5372 5366 5361 5355 5350 5340 5337 5339 5328 5321 5313 5297 5283 5268 5262 5255 5252 5253 5256 5255 5254 5254 5256
5373 5371 5366 5361 5357 5353 5344 5335 5332 5323 5318 5313 5303 5302 5295 5283 5269 5246 5234 5230 5228 5230 5235 5239 5241 5242 5242
5360 5356 5351 5347 5345 5335 5325 5312 5304 5305 5293 5292 5278 5261 5278 5268 5248 5232 5223 5214 5213 5211 5216 5222 5226 5229 5231
5347 5342 5341 5336 5327 5317 5306 5296 5285 5274 5269 5259 5254 5241 5223 5224 5235 5214 5202 5201 5200 5202 5205 5209 5213 5218 5223
5336 5334 5326 5320 5311 5302 5295 5280 5262 5254 5248 5232 5228 5214 5206 5203 5196 5201 5194 5190 5192 5197 5202 5204 5205 5210 5213
5326 5318 5310 5302 5295 5287 5277 5263 5247 5235 5226 5219 5208 5202 5187 5184 5185 5187 5189 5190 5192 5196 5199 5200 5204 5206 5209
5312 5304 5297 5287 5279 5269 5258 5249 5238 5233 5215 5206 5199 5191 5186 5178 5179 5183 5182 5184 5194 5195 5197 5200 5203 5205 5208
5297 5290 5281 5270 5260 5252 5239 5230 5218 5216 5218 5216 5200 5186 5179 5175 5182 5186 5187 5190 5193 5197 5198 5202 5204 5207 5209
5284 5274 5263 5253 5244 5236 5227 5217 5209 5206 5206 5209 5205 5201 5193 5185 5180 5192 5194 5195 5198 5199 5200 5203 5207 5209 5210
5271 5260 5247 5238 5231 5226 5221 5214 5210 5206 5202 5203 5199 5194 5198 5198 5199 5188 5197 5199 5201 5201 5202 5201 5206 5210 5209